Time,TemperatureF,DewpointF,PressureIn,WindDirection,WindDirectionDegrees,WindSpeedMPH,WindSpeedGustMPH,Humidity,HourlyPrecipIn,Conditions,Clouds,dailyrainin,SoftwareType,DateUTC
2014-08-20 00:12:00,65.5,50.0,29.71,WNW,298,0.0,-999.0,57,-99.99,,,0.00,weatherlink.com 1.10,2014-08-20 07:12:00,
2014-08-20 00:27:00,65.3,49.0,29.71,WNW,298,0.0,-999.0,57,-99.99,,,0.00,weatherlink.com 1.10,2014-08-20 07:27:00,
2014-08-20 00:42:00,65.1,49.0,29.71,WNW,298,0.0,-999.0,57,-99.99,,,0.00,weatherlink.com 1.10,2014-08-20 07:42:00,
2014-08-20 00:57:00,65.2,49.0,29.71,WNW,298,0.0,-999.0,56,-99.99,,,0.00,weatherlink.com 1.10,2014-08-20 07:57:00,
2014-08-20 01:12:00,65.5,49.0,29.71,WNW,298,0.0,-999.0,55,-99.99,,,0.00,weatherlink.com 1.10,2014-08-20 08:12:00,
2014-08-20 01:28:00,65.5,48.0,29.71,WNW,298,0.0,-999.0,54,-99.99,,,0.00,weatherlink.com 1.10,2014-08-20 08:28:00,
2014-08-20 01:43:00,65.4,48.0,29.71,WNW,298,0.0,-999.0,54,-99.99,,,0.00,weatherlink.com 1.10,2014-08-20 08:43:00,
2014-08-20 01:57:00,65.1,48.0,29.71,WNW,298,0.0,-999.0,55,-99.99,,,0.00,weatherlink.com 1.10,2014-08-20 08:57:00,
2014-08-20 02:12:00,64.6,48.0,29.71,WNW,298,0.0,-999.0,56,-99.99,,,0.00,weatherlink.com 1.10,2014-08-20 09:12:00,
2014-08-20 02:28:00,64.7,48.0,29.71,WNW,298,0.0,-999.0,55,-99.99,,,0.00,weatherlink.com 1.10,2014-08-20 09:28:00,
2014-08-20 02:43:00,65.1,47.0,29.71,WNW,298,0.0,-999.0,53,-99.99,,,0.00,weatherlink.com 1.10,2014-08-20 09:43:00,
2014-08-20 02:58:00,65.7,47.0,29.71,WNW,298,0.0,-999.0,51,-99.99,,,0.00,weatherlink.com 1.10,2014-08-20 09:58:00,
2014-08-20 03:12:00,65.8,46.0,29.71,WNW,298,0.0,-999.0,50,-99.99,,,0.00,weatherlink.com 1.10,2014-08-20 10:12:00,
2014-08-20 03:27:00,66.0,46.0,29.71,WNW,298,0.0,-999.0,49,-99.99,,,0.00,weatherlink.com 1.10,2014-08-20 10:27:00,
2014-08-20 03:43:00,66.1,46.0,29.71,WNW,298,0.0,-999.0,48,-99.99,,,0.00,weatherlink.com 1.10,2014-08-20 10:43:00,
2014-08-20 03:58:00,66.3,45.0,29.71,WNW,298,0.0,-999.0,46,-99.99,,,0.00,weatherlink.com 1.10,2014-08-20 10:58:00,
2014-08-20 04:13:00,66.2,45.0,29.71,WNW,298,0.0,-999.0,46,-99.99,,,0.00,weatherlink.com 1.10,2014-08-20 11:13:00,
2014-08-20 04:28:00,66.1,45.0,29.71,WNW,298,0.0,-999.0,46,-99.99,,,0.00,weatherlink.com 1.10,2014-08-20 11:28:00,
2014-08-20 04:43:00,66.2,44.0,29.70,WNW,298,0.0,-999.0,45,-99.99,,,0.00,weatherlink.com 1.10,2014-08-20 11:43:00,
2014-08-20 04:58:00,65.9,44.0,29.71,WNW,298,0.0,-999.0,46,-99.99,,,0.00,weatherlink.com 1.10,2014-08-20 11:58:00,
2014-08-20 05:13:00,65.6,44.0,29.71,WNW,298,0.0,-999.0,45,-99.99,,,0.00,weatherlink.com 1.10,2014-08-20 12:13:00,
2014-08-20 05:28:00,66.0,43.0,29.71,WNW,298,0.0,-999.0,44,-99.99,,,0.00,weatherlink.com 1.10,2014-08-20 12:28:00,
2014-08-20 05:43:00,66.0,43.0,29.71,WNW,298,0.0,-999.0,43,-99.99,,,0.00,weatherlink.com 1.10,2014-08-20 12:43:00,
2014-08-20 05:58:00,66.2,43.0,29.72,WNW,298,0.0,-999.0,43,-99.99,,,0.00,weatherlink.com 1.10,2014-08-20 12:58:00,
2014-08-20 06:13:00,67.1,42.0,29.72,WNW,298,0.0,-999.0,41,-99.99,,,0.00,weatherlink.com 1.10,2014-08-20 13:13:00,
2014-08-20 06:28:00,67.1,42.0,29.72,WNW,298,0.0,-999.0,41,-99.99,,,0.00,weatherlink.com 1.10,2014-08-20 13:28:00,
2014-08-20 06:43:00,66.8,42.0,29.73,WNW,298,0.0,-999.0,40,-99.99,,,0.00,weatherlink.com 1.10,2014-08-20 13:43:00,
2014-08-20 06:58:00,66.8,42.0,29.73,WNW,298,0.0,-999.0,40,-99.99,,,0.00,weatherlink.com 1.10,2014-08-20 13:58:00,
2014-08-20 07:13:00,67.2,42.0,29.73,WNW,298,0.0,-999.0,40,-99.99,,,0.00,weatherlink.com 1.10,2014-08-20 14:13:00,
2014-08-20 07:28:00,67.7,42.0,29.73,WNW,298,0.0,-999.0,39,-99.99,,,0.00,weatherlink.com 1.10,2014-08-20 14:28:00,
2014-08-20 07:43:00,68.1,43.0,29.73,WNW,298,0.0,-999.0,40,-99.99,,,0.00,weatherlink.com 1.10,2014-08-20 14:43:00,
2014-08-20 07:58:00,68.2,43.0,29.73,WNW,298,0.0,-999.0,41,-99.99,,,0.00,weatherlink.com 1.10,2014-08-20 14:58:00,
2014-08-20 08:13:00,68.6,44.0,29.74,WNW,298,0.0,-999.0,41,-99.99,,,0.00,weatherlink.com 1.10,2014-08-20 15:13:00,
2014-08-20 08:28:00,69.2,44.0,29.75,WNW,298,0.0,-999.0,41,-99.99,,,0.00,weatherlink.com 1.10,2014-08-20 15:28:00,
2014-08-20 08:43:00,70.2,43.0,29.75,WNW,298,0.0,-999.0,38,-99.99,,,0.00,weatherlink.com 1.10,2014-08-20 15:43:00,
2014-08-20 08:58:00,70.8,45.0,29.75,WNW,298,0.0,-999.0,39,-99.99,,,0.00,weatherlink.com 1.10,2014-08-20 15:58:00,
2014-08-20 09:13:00,71.2,45.0,29.75,WNW,298,0.0,-999.0,39,-99.99,,,0.00,weatherlink.com 1.10,2014-08-20 16:13:00,
2014-08-20 09:28:00,70.8,47.0,29.75,WNW,298,0.0,-999.0,43,-99.99,,,0.00,weatherlink.com 1.10,2014-08-20 16:28:00,
2014-08-20 09:43:00,70.6,48.0,29.76,WNW,298,0.0,-999.0,45,-99.99,,,0.00,weatherlink.com 1.10,2014-08-20 16:43:00,
2014-08-20 09:58:00,72.1,46.0,29.76,WNW,298,0.0,-999.0,40,-99.99,,,0.00,weatherlink.com 1.10,2014-08-20 16:58:00,
2014-08-20 10:13:00,73.4,48.0,29.77,SSE,160,0.0,-999.0,40,-99.99,,,0.00,weatherlink.com 1.10,2014-08-20 17:13:00,
2014-08-20 10:28:00,73.2,47.0,29.77,South,175,0.0,-999.0,40,-99.99,,,0.00,weatherlink.com 1.10,2014-08-20 17:28:00,
2014-08-20 10:43:00,73.4,49.0,29.77,West,270,0.0,-999.0,42,-99.99,,,0.00,weatherlink.com 1.10,2014-08-20 17:43:00,
2014-08-20 10:58:00,74.3,45.0,29.78,SW,227,0.0,-999.0,35,-99.99,,,0.00,weatherlink.com 1.10,2014-08-20 17:58:00,
2014-08-20 11:13:00,74.0,47.0,29.78,SSW,202,0.0,-999.0,38,-99.99,,,0.00,weatherlink.com 1.10,2014-08-20 18:13:00,
2014-08-20 11:28:00,74.5,46.0,29.78,South,178,1.0,-999.0,36,-99.99,,,0.00,weatherlink.com 1.10,2014-08-20 18:28:00,
2014-08-20 11:43:00,76.2,48.0,29.79,SE,126,0.0,-999.0,37,-99.99,,,0.00,weatherlink.com 1.10,2014-08-20 18:43:00,
2014-08-20 11:58:00,77.4,48.0,29.78,SW,235,0.0,-999.0,35,-99.99,,,0.00,weatherlink.com 1.10,2014-08-20 18:58:00,
2014-08-20 12:13:00,78.9,48.0,29.78,WSW,241,0.0,-999.0,34,-99.99,,,0.00,weatherlink.com 1.10,2014-08-20 19:13:00,
2014-08-20 12:28:00,80.2,48.0,29.78,WSW,256,1.0,-999.0,32,-99.99,,,0.00,weatherlink.com 1.10,2014-08-20 19:28:00,